Location: Newark
(51.0500°N, 12.4500°E)
Time: 18:26:13
(UTC+00:00)

Envisat - Visible Passes

Search period start: 29 January 2020 00:00
Search period end: 08 February 2020 00:00
Orbit: 764 x 766 km, 98.1° (Epoch: 29 January)

Date Brightness Start Highest point End Pass type
(mag) Time Alt. Az. Time Alt. Az. Time Alt. Az.
29 Jan 4.6 05:23:24 10° NNE 05:28:11 39° E 05:32:56 10° SSE visible
29 Jan 3.0 16:42:50 10° SSE 16:47:56 84° ENE 16:53:02 10° NNW visible
29 Jan 6.0 18:24:31 10° SW 18:27:37 16° W 18:30:45 10° NW visible
30 Jan 5.7 04:47:18 10° NE 04:51:04 20° E 04:54:48 10° SE visible
30 Jan 5.0 17:45:56 10° SSW 17:50:26 31° W 17:54:57 10° NNW visible
31 Jan 3.6 05:48:43 10° NNE 05:53:47 64° ESE 05:58:49 10° S visible
31 Jan 3.6 17:08:25 10° S 17:13:26 61° WSW 17:18:31 10° NNW visible
01 Feb 5.0 05:12:14 10° NNE 05:16:48 32° E 05:21:21 10° SSE visible
01 Feb 3.0 16:31:36 10° SSE 16:36:39 69° ENE 16:41:43 10° N visible
01 Feb 5.7 18:12:32 10° SW 18:16:11 20° W 18:19:51 10° NW visible
02 Feb 6.0 04:36:23 10° NE 04:39:38 17° E 04:42:51 10° SE visible
02 Feb 4.6 17:34:20 10° SSW 17:39:03 38° W 17:43:48 10° NNW visible
03 Feb 4.0 05:37:28 10° NNE 05:42:27 52° E 05:47:24 10° S visible
03 Feb 3.3 16:57:02 10° S 17:02:07 75° WSW 17:07:15 10° NNW visible
03 Feb 6.3 18:40:09 10° WSW 18:42:03 12° W 18:43:57 10° WNW visible
04 Feb 5.3 05:01:07 10° NE 05:05:25 27° E 05:09:41 10° SSE visible
04 Feb 5.5 18:00:42 10° SW 18:04:46 24° W 18:08:52 10° NW visible
05 Feb 6.3 04:25:39 10° NE 04:28:10 14° E 04:30:40 10° ESE visible
05 Feb 3.2 06:02:52 10° NNE 06:08:00 84° ESE 06:13:05 10° SSW visible
05 Feb 4.2 17:22:49 10° S 17:27:41 46° W 17:32:36 10° NNW visible
06 Feb 4.4 05:26:15 10° NNE 05:31:06 42° E 05:35:55 10° S visible
06 Feb 3.1 16:45:44 10° SSE 16:50:49 90° E 16:55:57 10° NNW visible
06 Feb 6.1 18:27:44 10° WSW 18:30:34 15° W 18:33:26 10° NW visible
07 Feb 5.7 04:50:04 10° NE 04:54:00 22° E 04:57:55 10° SE visible
07 Feb 5.1 17:48:58 10° SSW 17:53:21 29° W 17:57:47 10° NNW visible
